Location: Proctor
(47.8934°N, 114.3048°W)
Time: 11:33:51
(UTC+00:00)

AIST 2D - Pass Details

Date: 07 July 2022
Orbit: 433 x 443 km, 97.0° (Epoch: 11 August)

Event Time Altitude Azimuth Distance (km) Brightness Sun altitude
Rises 04:22:52 0° 27° (NNE) 2,430 ? -6.6°
Reaches altitude 10° 04:25:22 10° 48° (NE) 1,557 ? -6.9°
Maximum altitude 04:27:43 18° 93° (E) 1,161 ? -7.1°
Drops below altitude 10° 04:30:04 10° 138° (SE) 1,552 ? -7.4°
Enters shadow 04:30:06 10° 138° (SE) 1,564 ? -7.4°
